Location: Unspecified
(0.0000°N, 0.0000°E)
Time: 14:39:00
(UTC+00:00)

STARLINK-36864 - Pass Details

Date: 04 March 2026
Orbit: 270 x 271 km, 53.2° (Epoch: 6 March)

Event Time Altitude Azimuth Distance (km) Brightness Sun altitude
Rises 19:02:39 0° 219° (SW) 1,849 6.1 -12.7°
Reaches altitude 10° 19:04:32 10° 223° (SW) 1,048 4.8 -13.1°
Maximum altitude 19:06:49 57° 304° (WNW) 312 1.6 -13.7°
Enters shadow 19:08:10 21° 18° (NNE) 665 2.8 -14.0°
